Location: Hiekkapohja
(62.3333°N, 25.7833°E)
Time: 00:12:22
(UTC+00:00)

Cosmos 968 Rocket - Pass Details

Date: 07 August 2020
Orbit: 740 x 771 km, 74.0° (Epoch: 20 September)

Event Time Altitude Azimuth Distance (km) Brightness Sun altitude
Exits shadow 00:19:13 - 234° (SW) 2,482 5.6 -8.0°
Reaches altitude 10° 00:19:49 10° 235° (SW) 2,256 5.4 -8.0°
Maximum altitude 00:24:51 58° 314° (NW) 875 3.9 -7.7°
Drops below altitude 10° 00:29:56 10° 34° (NE) 2,279 7.7 -7.4°
Sets 00:32:22 0° 39° (NE) 3,210 9.1 -7.3°
